Weather History for KRPJ - December, 2013

Change the Weather History Date:

Sunday, December 1, 2013

  Actual Average (KRFD) Record (KRFD)
Temperature  
Mean Temperature 33 °F 31 °F  
Max Temperature 44 °F 39 °F 62 °F (1970)
Min Temperature 22 °F 23 °F -3 °F (1966)
Degree Days  
Heating Degree Days 32 34  
Month to date heating degree days 34  
Since 1 July heating degree days 1369  
Cooling Degree Days 0 0  
Month to date cooling degree days 0  
Year to date cooling degree days 820  
Moisture  
Dew Point 26 °F    
Average Humidity 78    
Maximum Humidity 95    
Minimum Humidity 51    
Precipitation  
Precipitation 0.00 in 0.08 in 1.46 in (1985)
Month to date precipitation 0.08  
Year to date precipitation 34.34  
Snow  
Snow 0.00 in 0.30 in 10.70 in (2006)
Month to date snowfall 0.3  
Since 1 July snowfall 2.1  
Snow Depth -    
Sea Level Pressure  
Sea Level Pressure 30.06 in    
Wind  
Wind Speed 3 mph (NNE)    
Max Wind Speed 12 mph    
Max Gust Speed -    
Visibility 7 miles    
Events      
T = Trace of Precipitation, MM = Missing Value Source: NWS Daily Summary

Daily Weather History Graph

Daily Weather History Graph

Search for Another Location

Airport or City:

Trip Planner

Search our weather history database for the weather conditions in past years. The results will help you decide how hot, cold, wet, or windy it might be!

Date:

Astronomy

Dec. 01, 2013 Rise Set
Actual Time 7:04 AM CST 4:26 PM CST
Civil Twilight 6:33 AM CST 4:57 PM CST
Nautical Twilight 5:58 AM CST 5:31 PM CST
Astronomical Twilight 5:25 AM CST 6:05 PM CST
Moon 5:21 AM CST (12/1) 3:36 PM CST (12/1)
Length of Visible Light 10h 23m
Length of Day
9h 21m
Waning Crescent, 2% of the Moon is Illuminated
Dec 1
Waning Crescent
Dec 2
New
Dec 9
First Quarter
Dec 17
Full
Dec 25
Last Quarter

Hourly Weather History & Observations

Time (CST) Temp. Windchill Dew Point Humidity Pressure Visibility Wind Dir Wind Speed Gust Speed Precip Events Conditions
12:15 AM 24.4 °F - 22.6 °F 93% 30.06 in 5.0 mi Calm Calm - N/A   Clear
12:35 AM 24.8 °F - 23.0 °F 93% 30.06 in 5.0 mi Calm Calm - N/A   Clear
12:55 AM 24.4 °F - 22.1 °F 91% 30.05 in 5.0 mi Calm Calm - N/A   Clear
1:15 AM 23.9 °F - 22.1 °F 93% 30.05 in 5.0 mi Calm Calm - N/A   Clear
1:35 AM 23.7 °F - 21.7 °F 92% 30.06 in 7.0 mi Calm Calm - N/A   Clear
1:55 AM 22.6 °F - 20.7 °F 92% 30.06 in 7.0 mi Calm Calm - N/A   Clear
2:15 AM 22.1 °F - 20.3 °F 93% 30.06 in 7.0 mi Calm Calm - N/A   Clear
2:35 AM 22.8 °F - 21.2 °F 93% 30.07 in 5.0 mi Calm Calm - N/A   Clear
2:55 AM 23.2 °F - 21.7 °F 94% 30.07 in 5.0 mi Calm Calm - N/A   Clear
3:15 AM 24.3 °F - 22.5 °F 93% 30.06 in 7.0 mi Calm Calm - N/A   Clear
3:35 AM 25.0 °F - 23.2 °F 93% 30.06 in 7.0 mi Calm Calm - N/A   Clear
3:55 AM 25.5 °F - 23.7 °F 93% 30.06 in 7.0 mi Calm Calm - N/A   Clear
4:15 AM 25.7 °F - 23.9 °F 93% 30.07 in 7.0 mi Calm Calm - N/A   Clear
4:35 AM 26.1 °F - 24.3 °F 93% 30.08 in 7.0 mi Calm Calm - N/A   Clear
4:55 AM 26.4 °F - 24.6 °F 93% 30.08 in 7.0 mi Calm Calm - N/A   Clear
5:15 AM 27.1 °F 21.8 °F 25.5 °F 94% 30.07 in 5.0 mi North 4.6 mph - N/A   Clear
5:35 AM 29.3 °F 22.3 °F 28.0 °F 95% 30.08 in 7.0 mi North 6.9 mph - N/A   Clear
5:55 AM 30.6 °F 27.1 °F 29.1 °F 94% 30.09 in 7.0 mi NW 3.5 mph - N/A   Clear
6:15 AM 30.2 °F 25.4 °F 28.4 °F 93% 30.09 in 7.0 mi North 4.6 mph - N/A   Clear
6:35 AM 30.2 °F 23.4 °F 28.4 °F 93% 30.09 in 7.0 mi NNE 6.9 mph - N/A   Clear
6:55 AM 30.9 °F 24.3 °F 28.9 °F 92% 30.10 in 7.0 mi North 6.9 mph - N/A   Clear
7:15 AM 31.1 °F 26.4 °F 28.4 °F 90% 30.10 in 7.0 mi North 4.6 mph - N/A   Clear
7:35 AM 31.1 °F 23.7 °F 28.4 °F 90% 30.11 in 5.0 mi North 8.1 mph - N/A   Clear
7:55 AM 31.1 °F 24.5 °F 27.9 °F 88% 30.11 in 5.0 mi North 6.9 mph - N/A   Clear
8:15 AM 30.2 °F 24.3 °F 27.1 °F 88% 30.11 in 5.0 mi North 5.8 mph - N/A   Clear
8:35 AM 32.4 °F 27.9 °F 29.5 °F 89% 30.11 in 5.0 mi North 4.6 mph - N/A   Clear
8:55 AM 33.8 °F 27.7 °F 29.3 °F 84% 30.11 in 7.0 mi NNE 6.9 mph - N/A   Clear
9:15 AM 35.2 °F 29.5 °F 29.3 °F 79% 30.12 in 7.0 mi NNE 6.9 mph - N/A   Clear
9:35 AM 35.8 °F 28.8 °F 29.3 °F 77% 30.12 in 7.0 mi NNE 9.2 mph - N/A   Clear
9:55 AM 37.0 °F 30.4 °F 29.5 °F 74% 30.12 in 7.0 mi NE 9.2 mph - N/A   Clear
10:15 AM 38.3 °F 32.5 °F 29.7 °F 71% 30.13 in 7.0 mi NNE 8.1 mph - N/A   Clear
10:35 AM 39.2 °F 33.0 °F 29.3 °F 68% 30.11 in 7.0 mi NE 9.2 mph - N/A   Clear
10:55 AM 40.1 °F 33.6 °F 29.1 °F 65% 30.10 in 7.0 mi NE 10.4 mph - N/A   Clear
11:15 AM 40.8 °F 34.1 °F 28.6 °F 62% 30.09 in 7.0 mi NE 11.5 mph - N/A   Clear
11:35 AM 41.2 °F 34.5 °F 28.0 °F 60% 30.09 in 7.0 mi NNE 11.5 mph - N/A   Clear
11:55 AM 42.1 °F 37.1 °F 27.7 °F 57% 30.08 in 7.0 mi NNE 8.1 mph - N/A   Clear
12:15 PM 42.8 °F 38.0 °F 28.2 °F 56% 30.09 in 7.0 mi North 8.1 mph - N/A   Clear
12:35 PM 42.8 °F 39.3 °F 27.9 °F 56% 30.08 in 10.0 mi North 5.8 mph - N/A   Clear
12:55 PM 43.3 °F 38.1 °F 27.9 °F 54% 30.07 in 10.0 mi NE 9.2 mph - N/A   Clear
1:15 PM 43.7 °F 39.1 °F 27.5 °F 53% 30.06 in 10.0 mi NNE 8.1 mph - N/A   Clear
1:35 PM 44.1 °F 40.8 °F 27.5 °F 52% 30.05 in 10.0 mi NNE 5.8 mph - N/A   Clear
1:55 PM 44.1 °F 41.5 °F 27.7 °F 53% 30.05 in 10.0 mi North 4.6 mph - N/A   Clear
2:15 PM 44.1 °F - 27.3 °F 52% 30.05 in 10.0 mi Calm Calm - N/A   Clear
2:35 PM 44.1 °F 40.8 °F 27.0 °F 51% 30.04 in 10.0 mi NNE 5.8 mph - N/A   Clear
2:55 PM 42.3 °F 38.6 °F 26.6 °F 54% 30.04 in 10.0 mi North 5.8 mph - N/A   Clear
3:15 PM 41.4 °F 37.6 °F 26.6 °F 56% 30.04 in 10.0 mi NNE 5.8 mph - N/A   Clear
3:35 PM 40.6 °F 36.0 °F 26.6 °F 57% 30.04 in 10.0 mi NNE 6.9 mph - N/A   Clear
3:55 PM 39.9 °F 35.1 °F 26.4 °F 59% 30.04 in 10.0 mi NE 6.9 mph - N/A   Clear
4:15 PM 36.9 °F 33.1 °F 24.6 °F 61% 30.04 in 10.0 mi NE 4.6 mph - N/A   Clear
4:35 PM 34.5 °F 31.6 °F 22.3 °F 61% 30.04 in 10.0 mi NE 3.5 mph - N/A   Clear
4:55 PM 33.8 °F 30.8 °F 25.3 °F 71% 30.04 in 10.0 mi NNE 3.5 mph - N/A   Clear
5:15 PM 32.0 °F 27.5 °F 25.0 °F 75% 30.04 in 7.0 mi NNE 4.6 mph - N/A   Clear
5:35 PM 31.5 °F 25.8 °F 23.7 °F 73% 30.04 in 7.0 mi NE 5.8 mph - N/A   Clear
5:55 PM 31.5 °F 25.8 °F 25.3 °F 78% 30.03 in 7.0 mi NE 5.8 mph - N/A   Clear
6:15 PM 30.7 °F 26.0 °F 23.0 °F 73% 30.03 in 7.0 mi NE 4.6 mph - N/A   Scattered Clouds
6:35 PM 29.3 °F 25.6 °F 23.7 °F 80% 30.04 in 7.0 mi NNE 3.5 mph - N/A   Mostly Cloudy
6:55 PM 29.3 °F - 23.5 °F 79% 30.03 in 7.0 mi Calm Calm - N/A   Mostly Cloudy
7:15 PM 28.6 °F 23.5 °F 22.3 °F 77% 30.03 in 7.0 mi NE 4.6 mph - N/A   Mostly Cloudy
7:35 PM 29.3 °F 24.3 °F 24.3 °F 81% 30.03 in 7.0 mi NE 4.6 mph - N/A   Overcast
7:55 PM 28.4 °F 23.3 °F 23.0 °F 80% 30.03 in 7.0 mi NE 4.6 mph - N/A   Mostly Cloudy
8:15 PM 28.8 °F 25.0 °F 23.0 °F 79% 30.03 in 7.0 mi ENE 3.5 mph - N/A   Mostly Cloudy
8:35 PM 29.7 °F 23.7 °F 25.3 °F 84% 30.02 in 7.0 mi East 5.8 mph - N/A   Overcast
8:55 PM 31.8 °F 26.2 °F 27.7 °F 85% 30.02 in 7.0 mi East 5.8 mph - N/A   Overcast
9:15 PM 32.0 °F 28.7 °F 27.3 °F 83% 30.02 in 7.0 mi ENE 3.5 mph - N/A   Overcast
9:35 PM 31.5 °F - 26.6 °F 82% 30.02 in 5.0 mi Calm Calm - N/A   Haze
9:55 PM 32.0 °F 27.5 °F 28.4 °F 87% 30.02 in 5.0 mi East 4.6 mph - N/A   Overcast
10:15 PM 32.0 °F - 28.0 °F 85% 30.01 in 5.0 mi Calm Calm - N/A   Overcast
10:35 PM 31.8 °F - 27.5 °F 84% 30.01 in 5.0 mi Calm Calm - N/A   Haze
10:55 PM 31.6 °F - 27.5 °F 85% 30.00 in 5.0 mi Calm Calm - N/A   Overcast
11:15 PM 31.6 °F - 28.0 °F 87% 29.99 in 5.0 mi Calm Calm - N/A   Overcast
11:35 PM 31.6 °F - 28.0 °F 87% 29.98 in 5.0 mi Calm Calm - N/A   Overcast
11:55 PM 31.6 °F - 27.7 °F 85% 29.97 in 5.0 mi Calm Calm - N/A   Overcast